User: anonymous   Login
Location: �A�n Sefra
(34.9681°N, 0.4346°E)
Time: 20:37:36
(UTC+00:00)
Language:

Cosmos 2123 Rocket - Orbit

View from above orbital plane
View from above orbital plane
View from above satellite
View from above satellite

Ground track
Ground track

The orbit data is extracted from the following two-line orbital elements,

1 21090U 91007B   19342.85133836  .00000006  00000-0 -91802-5 0  9997
2 21090  82.9211 284.8853 0021479  28.8465 331.3874 13.76386351448425
Epoch (UTC): 08 December 2019 20:25:55
Eccentricity: 0.0021479
inclination: 82.9211°
perigee height: 961 km
apogee height: 992 km
right ascension of ascending node: 284.8853°
argument of perigee: 28.8465°
revolutions per day: 13.76386351
mean anomaly at epoch: 331.3874°
orbit number at epoch: 44842

The dashed part of the orbit path shows where the satellite is in the earth's shadow,  

DLR